Regional Weather Roundup
Issued by NWS

Home | Current Version | Previous Version | Graphics & Text | Print | Product List | Glossary On
Versions: 1 2 3 4 5 6 7 8 9 10 11 12 13 14 15 16 17 18 19 20 21 22 23 24 25 26 27 28 29 30 31 32 33 34 35 36 37 38 39 40 41 42 43 44 45 46 47 48 49 50
000
ASUS43 KOAX 180402
RWRNE

WEATHER ROUNDUP FOR NEBRASKA
NATIONAL WEATHER SERVICE OMAHA NE
1000 PM CST WED DEC 17 2014

NOTES: SATELLITE DATA IS BEING USED TO AUGMENT CLOUD COVER ABOVE
       12000 FEET.
       "FAIR" INDICATES FEW OR NO CLOUDS BELOW 12,000 FEET WITH NO
       SIGNIFICANT WEATHER AND/OR OBSTRUCTIONS TO VISIBILITY.

  * THESE STATIONS DO NOT REPORT WEATHER SUCH AS RAIN...SNOW OR FOG.

NEZ001>004-019>022-054>056-180500-
NEBRASKA PANHANDLE

CITY           SKY/WX    TMP DP  RH WIND       PRES   REMARKS
SCOTTSBLUFF    FOG       19  18  95 CALM      30.01R VSB 1/4
ALLIANCE       FOG       21  19  92 S6        30.00R VSB 1/2 WCI  13
CHADRON        FOG       19  17  92 SW7       30.02S VSB 1/2 WCI  10
SIDNEY         CLOUDY    22  20  92 SW10      30.00R FOG     WCI  11
$$

NEZ057>060-069>072-079>082-180500-
SOUTHWEST NEBRASKA

CITY           SKY/WX    TMP DP  RH WIND       PRES   REMARKS
NORTH PLATTE   CLOUDY    22  20  92 SE6       30.11S WCI  14
IMPERIAL       CLOUDY    24  21  88 S8        30.08R FOG     WCI  15
MCCOOK         CLOUDY    25  23  92 E5        30.12S FOG     WCI  19
$$

NEZ005>010-023>029-035>040-094-180500-
NORTH CENTRAL NEBRASKA

CITY           SKY/WX    TMP DP  RH WIND       PRES   REMARKS
VALENTINE      CLOUDY    22  20  92 S10       30.10S WCI  11
BROKEN BOW     CLOUDY    24  22  91 SE6       30.13S FOG     WCI  17
ORD            CLOUDY    23  20  88 SE7       30.16F WCI  15
$$

NEZ041-046>049-061>064-073>077-083>087-180500-
SOUTH CENTRAL NEBRASKA

CITY           SKY/WX    TMP DP  RH WIND       PRES   REMARKS
GRAND ISLAND   CLOUDY    24  18  77 SE7       30.20S WCI  16
HASTINGS       CLOUDY    25  18  74 SE8       30.17S WCI  16
KEARNEY *      CLOUDY    25  19  80 E7        30.17R WCI  17
$$

NEZ011>018-030>034-042>045-180500-
NORTHEAST NEBRASKA

CITY           SKY/WX    TMP DP  RH WIND       PRES   REMARKS
NORFOLK        CLOUDY    25  17  72 SE7       30.22S WCI  17
COLUMBUS *     CLOUDY    25  16  68 SE6       30.24F WCI  18
TEKAMAH        CLOUDY    27  19  72 E7        30.27S WCI  19
$$

NEZ050>053-065>068-078-088>093-180500-
SOUTHEAST NEBRASKA

CITY           SKY/WX    TMP DP  RH WIND       PRES   REMARKS
LINCOLN        CLOUDY    27  18  69 E5        30.26F WCI  22
OMAHA EPPLEY   CLOUDY    28  19  69 E5        30.28S WCI  23
FALLS CITY     CLOUDY    29  22  75 SE5       30.26S WCI  24
$$

NEZ044-045-051>053-067-180500-
OMAHA AREA

CITY           SKY/WX    TMP DP  RH WIND       PRES   REMARKS
OMAHA EPPLEY   CLOUDY    28  19  69 E5        30.28S WCI  23
OFFUTT AFB     CLOUDY    28  20  71 E3        30.26S
$$



USA.gov is the U.S. government's official web portal to all federal, state and local government web resources and services.